Flag for Spain Weather past 2 weeks in Mahón, Menorca, Spain

Now
57 °F

Passing clouds.


Feels Like: 56 °F
Forecast: 51 / 62 °F
Wind: 7 mph from Northwest

Location: Menorca / Mahon

Current Time: Mar 28, 2015 at 8:13:51 PM

Latest Report: Mar 28, 2015 at 7:00 PM


Visibility: 13 mi

Pressure: 30.20 "Hg

Humidity: 86%

Dew point: 53 °F

Location of MahónLocation

Historic Weather in Mahón — Graph

°F

Mahón temperature yesterday

Maximum temperature yesterday: 62 °F (at 3:00 PM)
Minimum temperature yesterday: 50 °F (at 11:00 PM)
Average temperature yesterday: 55 °F

Past Weeks' High & Low Weather Summary

 TemperatureHumidityPressure
High65 °F (Mar 28, 1:00 PM)98% (Mar 25, 5:00 AM)30.20 "Hg (Mar 25, 5:00 AM)
Low44 °F (Mar 17, 2:00 AM)50% (Mar 26, 2:00 PM)29.41 "Hg (Mar 25, 4:00 AM)
Average54 °F84%29.94 "Hg
* Reported Mar 13 6:00 PM — Mar 28 6:00 PM, Mahón, Weather by CustomWeather, © 2015

Note: Actual official high and low records may vary slightly from our data, if they occured in-between our weather recording intervals... More about our weather records

Advertising

Mahón weather history for previous 24 hours

 ConditionsComfort  
Time TempWeatherWind HumidityBarometerVisibility
6:00 PM
Sat, Mar 28
60 °FCool.12 mph79%30.19 "HgN/A
5:00 PM62 °FCool.14 mph71%30.18 "HgN/A
4:00 PM64 °FScattered clouds.13 mph66%30.17 "Hg16 mi
3:00 PM64 °FMild.15 mph64%30.17 "HgN/A
2:00 PM64 °FPartly sunny.15 mph65%30.19 "Hg16 mi
1:00 PM65 °FPartly sunny.13 mph60%30.19 "Hg16 mi
12:00 PM64 °FMild.16 mph65%30.20 "HgN/A
11:00 AM62 °FCool.26 mph68%30.20 "HgN/A
10:00 AM62 °FScattered clouds.23 mph67%30.19 "Hg16 mi
9:00 AM59 °FCool.24 mph70%30.18 "HgN/A
8:00 AM59 °FScattered clouds.21 mph72%30.17 "Hg19 mi
7:00 AM57 °FPartly sunny.20 mph74%30.15 "Hg16 mi
6:00 AM57 °FCool.21 mph73%30.14 "HgN/A
5:00 AM56 °FCool.21 mph71%30.13 "HgN/A
4:00 AM56 °FPassing clouds.22 mph74%30.11 "Hg12 mi
3:00 AM56 °FCool.18 mph72%30.12 "HgN/A
2:00 AM54 °FCool.12 mph69%30.14 "HgN/A
1:00 AM52 °FCool.8 mph76%30.16 "HgN/A
12:00 AM53 °FCool.10 mph80%30.17 "HgN/A
11:00 PM
Fri, Mar 27
50 °FCool.6 mph86%30.16 "HgN/A
9:00 PM51 °FCool.8 mph82%30.13 "HgN/A
8:00 PM53 °FCool.10 mph78%30.12 "HgN/A
Weather by CustomWeather, © 2015

See weather overviewHow to use our weather pages